Wind_Speed
53 52 52 51 51 51 51 51 50 51 53 54 55 56 56 58 59 60 60 61 62 63 64 65 64 62 60 57 55 55 55 53 52 51 51 53 53 52 49 46 43 39 37 39 41 37 32 30 32 35 37 36 35 37 40 41 39 39 40 40 38 37 35
53 53 53 53 53 53 52 52 52 52 53 53 54 55 56 57 58 59 60 62 63 64 66 66 63 60 56 55 53 53 53 52 51 50 50 51 52 51 50 47 43 40 37 35 38 37 34 32 31 34 37 35 34 36 39 40 41 40 40 42 41 39 37
54 54 54 54 54 54 54 54 53 53 53 54 54 54 55 57 58 60 61 63 64 66 66 63 59 55 52 51 50 51 51 50 49 49 49 50 50 49 47 46 42 39 38 35 36 38 37 36 34 33 35 35 33 35 37 41 43 42 40 42 42 41 39
54 54 54 55 55 55 55 55 55 55 55 55 55 55 56 58 59 61 63 65 66 65 62 56 51 49 48 48 48 48 48 48 48 48 49 50 49 47 43 42 40 38 36 34 34 37 38 38 35 33 33 34 33 34 36 40 43 42 40 40 42 42 40
54 54 54 55 55 56 56 56 55 56 56 56 56 56 57 58 60 62 64 64 63 58 52 48 46 45 45 46 45 46 46 47 46 47 48 49 49 47 41 38 38 34 31 30 31 35 37 37 35 33 31 29 32 34 35 38 41 40 38 39 42 42 41
53 53 53 54 55 55 55 56 56 56 56 56 56 57 58 59 60 60 59 57 54 49 46 44 43 43 43 44 44 44 44 45 45 45 47 48 48 47 42 39 35 31 29 28 30 32 35 37 34 31 28 26 30 34 34 35 37 37 35 37 41 42 41
52 52 52 52 53 53 54 54 55 55 56 56 57 57 57 56 55 53 51 49 46 44 43 42 41 41 42 43 42 41 42 44 44 44 45 47 47 44 41 38 34 29 27 26 28 29 34 37 33 29 28 27 30 33 32 32 33 32 33 36 39 40 39
50 49 49 50 50 50 51 52 52 53 53 53 53 52 52 50 49 47 46 45 44 43 42 41 40 40 41 41 41 39 40 42 43 43 43 44 44 41 38 36 32 26 23 22 23 24 30 33 29 27 26 26 28 30 30 31 30 29 32 34 36 36 37
45 46 46 46 47 47 47 48 48 49 48 48 48 48 47 47 46 44 44 43 43 42 41 40 40 39 40 40 39 38 38 40 41 41 41 41 41 38 36 32 26 21 17 15 17 20 25 27 25 24 23 23 25 26 28 29 29 29 30 32 33 34 35
42 42 43 43 44 44 44 44 45 46 46 46 46 46 45 44 43 42 42 42 42 42 41 40 40 39 38 38 38 37 36 38 39 39 39 39 37 34 31 26 19 14 9 9 15 20 24 26 24 22 22 23 24 26 29 30 29 29 29 31 32 33 33
40 40 41 41 42 42 42 43 43 44 45 44 44 44 43 42 42 42 42 43 43 43 42 41 40 39 38 38 37 36 35 36 37 37 37 37 34 30 25 18 12 7 3 9 16 21 25 26 24 23 25 27 28 28 29 32 31 30 30 31 32 33 33
38 39 39 40 40 40 40 41 42 42 42 42 42 42 42 42 43 43 44 45 44 44 42 41 40 39 38 37 36 35 34 35 35 35 35 35 32 27 20 13 8 4 7 11 16 20 23 23 23 25 28 30 32 32 31 31 30 29 30 29 30 31 32
38 38 39 39 39 39 39 40 40 40 41 41 42 42 43 44 44 45 45 44 43 41 40 39 39 39 39 38 36 35 34 34 34 33 33 32 31 25 17 12 9 8 10 15 18 20 22 24 25 28 32 32 34 35 35 31 27 27 28 28 29 30 31
38 38 39 39 39 39 39 40 40 41 42 42 43 44 44 44 44 44 43 41 39 38 37 37 38 38 39 38 37 35 34 33 32 32 31 30 29 26 18 14 13 13 14 17 21 23 24 26 29 32 35 35 35 36 36 32 28 28 29 30 31 32 32
38 39 39 40 40 40 40 41 41 42 43 43 44 44 44 44 43 41 39 37 36 35 36 36 36 37 39 39 37 36 35 34 32 31 30 29 28 26 21 18 18 17 18 19 21 25 26 27 30 33 35 35 35 35 35 33 33 34 34 35 36 35 34
39 40 40 40 41 41 42 42 42 43 43 43 43 44 44 44 42 41 39 37 37 37 37 37 37 37 38 39 38 36 35 35 33 31 30 29 28 26 24 22 22 20 21 23 24 25 28 29 31 32 34 34 33 33 35 35 36 39 40 42 42 40 38
41 42 42 42 42 42 42 42 42 43 43 43 44 45 45 45 43 42 41 41 41 40 40 39 39 38 38 39 38 37 36 36 35 32 30 29 28 27 25 24 26 25 23 25 27 28 30 31 32 32 34 36 34 34 38 40 40 40 42 43 43 41 38
42 43 43 43 43 42 42 42 43 44 44 45 46 47 47 46 45 45 45 45 44 44 43 42 41 40 39 39 39 38 37 36 36 35 32 30 29 27 26 26 28 30 28 27 28 31 33 34 34 33 34 37 37 36 38 42 44 43 43 43 43 41 38
43 44 44 44 43 43 43 44 45 46 47 48 48 49 49 48 47 47 48 47 46 45 44 43 42 42 41 40 39 39 38 37 37 37 35 33 31 29 28 27 28 32 34 32 31 33 35 37 38 38 37 37 39 39 40 42 45 46 45 45 44 44 42
44 45 45 44 45 45 46 47 47 48 49 49 50 50 50 50 49 49 49 48 48 46 45 44 43 43 42 41 40 40 39 39 39 39 38 37 34 32 30 29 29 31 36 38 37 35 37 39 41 43 43 42 41 41 42 44 46 48 49 48 47 47 46
46 46 46 47 47 48 48 49 49 50 50 51 52 52 52 52 51 50 50 49 49 48 47 46 45 43 43 42 42 41 40 40 40 40 40 40 38 36 34 32 31 31 34 39 42 42 41 41 43 45 46 47 47 46 45 45 46 49 51 51 51 51 50
47 48 48 49 49 49 49 50 51 52 52 53 54 54 54 53 52 51 51 50 50 50 49 48 46 43 42 42 42 42 42 42 42 42 42 42 42 40 39 37 35 34 34 37 42 46 46 46 45 46 47 48 50 51 50 48 47 48 50 53 54 55 56
49 50 50 50 51 51 51 52 53 54 54 55 55 55 55 54 53 52 52 51 51 51 49 48 46 44 42 41 41 42 43 43 43 44 44 44 44 44 43 41 40 38 37 37 39 43 48 50 50 50 50 50 51 52 53 53 51 49 49 51 54 56 58
51 51 52 53 53 53 53 54 55 55 56 56 56 56 55 54 53 52 52 51 51 51 50 48 47 45 43 42 41 42 43 44 45 45 46 46 46 46 46 45 44 43 42 41 40 41 45 49 52 54 54 54 54 53 54 54 55 53 51 52 54 57 59
53 54 54 55 55 55 55 56 57 57 57 56 56 56 55 54 53 53 52 52 52 51 51 50 49 47 45 44 43 43 43 45 46 47 47 47 48 48 48 48 48 47 46 45 44 44 44 46 50 54 57 58 58 58 56 55 55 56 56 56 56 57 59
56 56 57 57 57 57 57 58 58 58 57 57 57 56 55 54 53 52 52 52 53 53 53 53 52 50 49 49 48 46 45 45 46 47 48 48 49 49 50 50 50 50 49 49 48 48 48 47 48 50 54 57 60 62 62 60 58 57 57 59 60 60 60
58 58 58 59 59 59 59 59 59 59 58 57 56 55 54 54 53 52 52 53 54 54 55 55 55 54 53 52 52 50 49 47 46 46 47 48 49 50 50 51 52 52 52 52 52 51 51 51 51 51 52 54 56 60 63 65 65 63 60 60 60 62 63
59 60 60 61 61 61 61 61 60 59 58 57 55 54 54 53 53 52 53 54 55 56 57 57 57 56 55 53 52 51 51 50 50 49 48 48 49 50 50 51 52 53 54 54 54 54 54 54 54 54 54 54 55 57 59 62 65 67 67 65 64 64 65
61 61 62 63 62 62 62 61 60 59 58 56 54 53 53 53 53 53 54 56 57 58 59 58 58 57 56 55 53 52 51 52 52 51 51 50 50 50 51 51 52 53 55 55 56 56 56 57 57 57 57 57 57 57 58 60 62 65 67 69 69 68 68
63 63 64 64 63 62 61 60 59 57 55 53 53 52 52 53 53 54 56 57 58 59 59 59 58 58 57 56 54 53 52 52 52 53 53 53 53 53 53 53 53 53 54 56 56 57 58 59 59 59 59 59 59 60 60 61 62 63 65 68 70 71 72
64 64 64 63 62 61 60 58 56 54 52 52 52 52 53 53 55 56 57 59 60 60 59 58 58 57 57 57 56 55 54 54 53 54 54 55 56 56 56 56 57 57 57 57 57 58 59 60 60 61 62 62 62 62 62 63 63 64 65 67 69 71 73
62 61 60 59 58 57 56 54 52 51 51 51 52 53 54 55 56 58 59 60 60 60 58 58 58 58 59 58 58 57 56 55 55 55 55 55 56 57 58 59 59 60 60 60 60 61 61 62 62 63 64 64 64 64 65 66 66 67 67 68 70 71 72
57 56 55 54 54 53 52 51 50 50 51 52 53 54 56 57 58 59 60 60 60 59 58 59 59 60 60 60 59 58 57 56 56 56 56 56 56 57 58 59 60 61 61 62 63 63 64 64 65 66 66 67 68 68 68 69 69 70 71 71 72 73 74
53 53 53 52 51 50 50 50 50 51 52 53 54 56 57 58 59 60 60 60 60 59 59 60 61 62 62 61 60 59 58 57 57 57 57 57 57 58 58 59 60 61 62 62 63 64 65 66 67 68 69 70 71 72 72 72 73 73 74 75 75 76 76
51 51 51 50 49 49 49 50 51 52 53 54 56 57 58 59 60 60 60 60 60 60 61 61 62 63 63 61 60 59 58 58 57 57 57 58 58 59 59 59 60 60 61 62 62 63 64 65 66 68 69 70 72 73 74 75 76 76 77 78 78 79 79
51 50 50 49 48 49 50 51 52 53 54 56 57 58 59 60 60 60 60 60 61 61 62 63 64 63 63 61 60 59 58 58 58 58 59 59 60 60 60 61 61 61 61 61 61 61 61 62 62 63 64 66 67 69 71 73 74 76 77 79 80 81 82
49 49 48 48 48 49 50 52 53 54 56 57 58 58 59 59 60 60 60 61 61 62 63 64 64 63 62 61 60 59 59 59 60 60 61 61 61 62 62 62 61 61 60 60 59 59 58 58 58 58 59 60 61 62 64 65 67 69 72 75 77 79 81
Wind_Direction
279 279 279 279 279 278 278 277 276 276 276 277 278 279 281 283 284 286 287 290 294 298 302 303 304 303 302 302 303 304 306 308 310 311 311 311 312 312 312 311 305 294 283 279 280 274 260 249 242 239 235 230 230 234 234 234 233 231 232 232 231 231 231
279 279 279 279 279 279 278 278 278 277 278 279 280 283 285 286 286 287 288 291 294 297 300 301 301 301 300 301 303 304 306 309 311 312 311 311 312 314 313 311 304 295 286 276 270 266 255 248 242 235 233 231 229 232 232 231 232 232 232 233 232 231 231
279 279 279 280 279 279 279 279 279 279 280 281 283 285 287 287 287 287 289 291 294 297 299 300 299 299 300 302 304 305 307 309 311 311 311 312 313 314 313 310 303 295 288 275 262 258 251 244 241 235 230 230 231 231 230 229 231 232 231 232 232 230 230
278 279 279 279 279 280 280 281 281 282 283 284 285 286 287 287 287 288 289 291 294 297 298 299 299 300 301 304 305 306 307 308 310 311 312 313 314 315 313 308 302 294 287 277 263 256 248 240 238 236 229 228 232 231 229 228 230 233 231 229 229 230 230
278 278 279 279 280 280 281 282 283 284 285 287 288 288 288 288 288 289 290 292 294 297 298 299 300 302 303 305 305 305 306 307 309 312 313 315 316 317 313 308 304 294 284 276 264 256 248 238 234 234 230 231 235 233 230 228 230 234 232 227 227 229 229
278 279 280 281 281 282 282 283 284 285 286 287 288 289 289 290 291 292 293 294 296 298 299 301 302 303 304 304 305 305 304 306 309 313 315 316 317 318 316 313 309 297 284 272 262 253 242 233 231 229 226 231 235 232 230 231 232 234 234 229 227 229 229
280 281 282 283 284 284 284 285 285 286 287 287 288 289 290 292 293 295 296 297 298 299 301 302 302 303 303 303 304 304 303 305 309 314 316 318 319 320 319 318 314 301 284 269 258 247 233 227 227 224 222 226 228 227 229 231 232 235 235 231 228 229 230
281 282 283 284 285 286 286 287 287 287 287 288 289 290 292 293 295 296 297 298 299 300 301 301 301 302 302 302 302 302 302 305 309 314 317 319 319 321 323 322 318 305 287 267 251 237 224 221 221 221 223 224 223 225 229 230 231 232 234 232 229 229 230
281 282 283 285 286 287 287 288 288 288 289 290 291 292 293 294 295 296 297 298 300 300 300 300 301 301 300 300 301 301 302 304 309 314 318 320 320 322 326 325 322 313 293 260 230 216 210 211 215 221 223 220 218 223 227 229 230 232 233 233 230 229 230
282 282 283 285 285 286 287 288 288 289 290 291 292 293 294 295 296 298 299 299 300 300 300 300 300 300 299 299 299 300 301 303 309 313 318 320 320 322 325 324 326 322 294 228 202 197 199 205 213 219 216 212 214 221 227 230 231 234 235 233 231 231 232
281 282 283 284 285 286 287 288 288 289 291 292 293 294 295 297 298 299 299 299 299 299 299 298 298 298 297 297 297 298 299 302 307 311 316 319 319 320 321 321 328 325 237 194 190 192 198 208 213 211 209 209 212 219 228 232 233 235 236 234 233 233 233
280 281 283 284 285 286 287 288 289 290 291 293 294 295 297 298 299 299 299 298 298 298 297 296 296 295 295 294 294 295 296 299 303 308 314 317 316 316 312 308 314 286 207 195 196 200 207 213 212 208 209 214 217 219 225 231 234 237 239 238 236 236 237
281 282 284 285 286 286 287 288 289 291 293 295 296 298 299 299 299 299 299 299 298 298 297 295 294 293 293 293 291 292 293 295 300 305 310 314 314 310 300 282 276 256 225 214 210 211 215 216 213 211 213 219 223 224 227 229 232 238 241 242 243 243 242
282 284 284 285 286 287 288 289 291 293 294 296 297 298 299 299 300 300 300 300 300 300 298 296 295 293 292 291 290 289 290 292 296 301 306 311 311 306 290 266 257 252 241 233 225 220 219 219 219 219 219 222 227 229 230 228 229 235 237 238 241 243 243
283 285 285 286 286 287 289 291 293 294 295 296 297 298 299 300 301 301 302 301 302 303 302 300 297 295 293 291 289 287 287 288 291 295 301 306 308 303 286 261 252 251 246 245 239 228 223 224 225 227 227 228 231 235 234 227 224 229 232 233 235 238 240
283 284 284 285 286 288 291 293 295 296 296 296 297 298 299 299 300 300 301 301 302 304 305 303 301 298 295 293 289 285 284 285 287 290 294 299 302 301 287 263 251 250 248 247 246 238 229 227 228 230 228 225 229 236 237 232 228 228 231 234 238 241 243
282 283 284 285 287 290 292 294 295 296 295 295 296 298 299 298 297 298 299 300 302 303 304 304 303 301 298 296 292 285 281 281 283 285 288 291 295 297 291 270 253 250 249 245 244 243 237 231 230 230 227 223 225 231 233 234 236 236 236 238 241 244 246
282 283 284 286 288 289 291 293 295 295 295 295 296 297 298 297 295 296 297 299 301 302 302 302 302 301 299 297 294 288 282 278 279 281 282 285 287 290 290 279 260 251 250 247 242 240 240 237 232 231 231 230 233 235 233 233 237 240 241 241 241 242 242
281 283 284 285 286 287 289 292 293 294 294 295 296 297 297 296 295 295 297 298 300 301 301 301 300 299 298 296 294 291 285 279 276 277 278 279 281 282 284 282 270 256 250 248 245 240 238 238 236 233 232 234 237 239 238 235 234 236 239 239 238 238 238
280 281 283 284 285 287 289 291 293 294 295 295 295 296 296 295 295 296 298 299 300 301 301 300 298 297 295 293 292 291 287 281 277 275 275 275 276 276 276 277 275 265 254 248 247 244 240 238 238 237 235 235 237 239 239 239 236 235 236 235 234 235 237
279 280 281 282 285 287 289 291 293 294 295 295 296 296 296 296 297 298 299 300 301 302 301 300 298 295 292 290 289 288 287 283 280 276 273 272 272 272 272 271 271 269 262 253 248 247 244 241 239 239 238 237 238 239 240 241 239 238 238 236 236 238 239
277 278 280 282 285 288 290 292 294 295 296 296 296 297 297 297 298 299 300 301 302 303 303 302 300 296 291 287 286 285 285 283 281 278 275 272 270 270 269 268 267 266 265 259 253 249 248 246 243 241 241 240 240 240 241 242 242 242 242 241 241 242 244
276 277 280 283 286 289 291 293 294 296 296 297 297 298 298 298 298 299 300 301 302 304 305 305 303 300 295 289 285 283 282 282 281 279 277 275 272 269 267 266 265 264 263 261 258 253 250 249 247 245 244 243 242 242 243 243 243 243 244 245 245 245 246
276 278 281 285 287 289 291 293 295 296 297 297 298 298 297 297 298 299 300 301 303 304 305 306 306 303 299 294 289 284 281 280 280 279 277 276 275 272 268 265 264 263 262 261 259 257 254 252 250 249 247 246 245 245 245 246 246 245 244 245 245 245 245
277 280 283 286 288 290 292 293 295 296 296 297 297 297 296 297 297 298 300 301 302 304 304 305 304 303 302 299 295 289 284 281 279 278 277 276 274 273 270 267 264 262 261 261 260 259 257 255 253 252 251 249 248 247 246 246 247 247 247 246 245 244 244
279 282 284 286 288 289 291 293 294 295 295 296 296 295 295 296 297 298 299 300 302 303 303 303 302 301 300 299 297 294 290 285 281 278 276 275 274 272 270 268 266 263 261 261 260 259 258 257 255 254 253 252 251 250 248 247 247 247 247 248 247 246 244
281 283 284 286 287 289 290 292 293 294 294 295 295 294 294 295 296 297 298 299 301 302 303 303 302 300 298 298 296 294 292 289 286 282 279 276 274 273 271 269 267 265 263 262 260 259 258 257 256 255 255 254 254 253 251 250 249 247 246 246 246 247 246
282 283 284 285 287 288 290 291 292 293 294 294 293 293 293 294 295 296 297 298 300 301 303 302 301 299 298 297 295 293 291 289 288 286 283 280 276 274 272 270 269 267 265 264 262 260 259 258 257 256 255 255 255 254 254 253 251 250 248 247 245 245 245
282 284 284 286 287 289 290 291 292 292 293 292 292 292 292 293 294 295 296 298 300 301 302 301 300 298 297 297 295 293 291 289 287 286 285 283 280 277 275 272 270 269 267 266 264 262 261 260 259 257 256 255 254 254 254 254 253 252 251 249 248 246 245
283 284 285 287 288 289 290 290 291 291 291 291 291 291 292 292 293 294 296 298 300 301 301 299 298 298 298 297 296 295 292 290 288 286 284 283 281 280 278 276 274 271 269 268 266 265 263 262 260 259 258 256 255 254 254 254 253 253 253 252 250 249 247
284 285 286 287 288 289 289 290 290 290 289 289 290 290 291 292 292 294 296 298 300 300 299 298 298 298 299 299 298 296 294 292 289 287 284 282 281 279 278 277 276 275 273 271 269 268 266 264 263 262 260 259 257 256 255 254 253 253 252 252 252 251 249
285 285 287 287 288 288 289 289 288 288 289 289 289 290 290 291 292 294 297 298 299 299 299 298 298 299 300 300 299 297 295 292 290 288 285 283 282 280 279 278 277 276 275 274 273 271 270 268 267 265 264 262 260 259 257 256 254 253 252 252 251 251 250
285 286 287 287 287 288 288 287 287 288 288 289 289 289 290 291 293 296 297 298 298 298 298 299 299 299 300 300 299 297 294 292 290 289 287 285 283 282 281 279 278 277 276 275 274 273 272 271 270 268 267 266 264 262 261 259 257 256 254 253 252 251 250
285 286 287 287 287 287 287 287 287 287 288 288 288 289 291 293 295 296 297 297 297 298 299 299 299 299 299 299 298 296 294 292 291 289 288 286 285 283 282 281 279 278 277 276 275 274 273 272 271 270 269 267 266 265 264 262 260 259 257 255 254 252 251
285 286 287 287 287 287 286 286 287 287 287 288 289 290 292 294 295 295 296 296 297 298 298 298 299 299 299 299 297 295 294 293 292 291 290 289 288 287 285 284 282 281 279 278 277 275 274 273 271 270 269 268 266 265 264 263 262 260 259 257 255 254 252
286 286 287 287 286 286 286 286 286 286 287 288 290 291 293 294 294 295 295 296 297 298 298 299 299 299 299 298 297 296 296 295 295 294 294 293 292 292 291 289 288 287 285 283 282 280 278 276 275 273 271 269 267 266 264 263 262 261 259 258 257 255 253
286 286 286 285 285 285 285 285 285 286 287 289 291 292 293 293 294 295 295 296 297 298 298 299 300 300 299 299 299 299 299 299 299 298 297 297 296 295 294 293 292 291 289 288 286 285 283 281 279 277 275 273 271 269 267 265 263 262 260 259 257 256 254
Height
10723 10723 10723 10723 10722 10722 10722 10722 10721 10720 10718 10718 10717 10716 10716 10714 10713 10712 10710 10709 10707 10705 10704 10701 10699 10696 10693 10691 10689 10687 10685 10683 10680 10677 10673 10668 10665 10662 10660 10658 10654 10650 10649 10648 10646 10647 10648 10649 10650 10651 10653 10657 10661 10663 10665 10669 10673 10676 10678 10681 10684 10687 10688
10718 10718 10717 10717 10716 10716 10716 10716 10716 10715 10714 10712 10711 10710 10710 10709 10707 10706 10705 10703 10702 10701 10699 10696 10693 10691 10688 10686 10683 10681 10678 10676 10673 10671 10668 10663 10659 10656 10653 10650 10647 10643 10642 10643 10641 10640 10642 10644 10645 10646 10648 10652 10656 10657 10660 10664 10668 10671 10673 10676 10679 10682 10684
10712 10712 10712 10711 10710 10710 10709 10709 10709 10709 10708 10707 10706 10705 10704 10703 10702 10700 10699 10698 10696 10695 10693 10690 10687 10685 10682 10680 10678 10675 10672 10670 10667 10665 10662 10658 10654 10652 10648 10643 10640 10637 10635 10635 10634 10634 10635 10637 10639 10641 10644 10648 10650 10652 10656 10659 10662 10665 10669 10671 10674 10678 10680
10707 10707 10707 10706 10705 10704 10704 10704 10703 10703 10702 10701 10701 10700 10698 10697 10696 10695 10693 10692 10690 10689 10687 10684 10681 10679 10677 10675 10672 10669 10667 10664 10663 10660 10656 10653 10649 10646 10643 10637 10633 10630 10628 10627 10628 10628 10629 10631 10634 10637 10640 10644 10646 10648 10651 10655 10658 10661 10664 10667 10670 10673 10676
10702 10702 10702 10701 10700 10699 10699 10698 10698 10697 10696 10695 10695 10694 10693 10692 10691 10689 10687 10686 10684 10682 10680 10678 10676 10674 10671 10669 10667 10664 10662 10659 10658 10655 10650 10647 10643 10640 10637 10632 10628 10624 10622 10621 10622 10623 10623 10627 10630 10633 10637 10642 10644 10645 10648 10651 10654 10657 10661 10664 10666 10668 10670
10697 10697 10697 10696 10695 10695 10694 10693 10693 10692 10691 10690 10689 10688 10687 10686 10684 10683 10681 10679 10678 10676 10674 10673 10671 10669 10666 10664 10662 10660 10657 10654 10652 10650 10645 10641 10637 10633 10629 10626 10622 10620 10617 10616 10617 10618 10620 10623 10627 10631 10635 10639 10640 10641 10645 10648 10651 10654 10657 10659 10661 10663 10665
10693 10692 10692 10691 10690 10690 10689 10689 10688 10687 10686 10685 10685 10683 10682 10680 10679 10677 10675 10673 10672 10671 10669 10668 10666 10664 10662 10660 10658 10656 10653 10650 10648 10645 10642 10637 10633 10628 10624 10620 10617 10614 10612 10611 10612 10614 10617 10620 10625 10629 10632 10635 10636 10639 10642 10645 10648 10651 10653 10654 10656 10658 10662
10688 10688 10687 10686 10686 10685 10684 10684 10683 10682 10681 10680 10680 10678 10677 10675 10674 10672 10670 10668 10667 10666 10665 10663 10661 10660 10657 10655 10654 10652 10649 10646 10643 10641 10638 10634 10629 10624 10620 10616 10612 10610 10608 10607 10608 10611 10615 10620 10624 10627 10630 10632 10634 10637 10640 10642 10645 10647 10647 10649 10652 10655 10657
10683 10683 10682 10682 10681 10681 10680 10679 10678 10677 10676 10675 10675 10673 10672 10671 10669 10668 10666 10664 10663 10662 10660 10658 10657 10655 10653 10651 10649 10648 10645 10642 10640 10637 10634 10631 10626 10622 10618 10614 10611 10607 10605 10605 10607 10611 10616 10620 10624 10626 10628 10630 10633 10635 10637 10639 10642 10643 10644 10646 10649 10651 10653
10679 10679 10678 10678 10677 10677 10676 10675 10674 10672 10671 10671 10670 10669 10668 10666 10665 10664 10662 10660 10659 10657 10656 10654 10652 10650 10649 10647 10645 10643 10641 10639 10636 10634 10631 10628 10624 10620 10617 10614 10611 10607 10605 10605 10607 10611 10616 10620 10623 10625 10628 10630 10632 10634 10635 10637 10639 10640 10641 10643 10645 10647 10648
10675 10675 10675 10674 10674 10673 10672 10671 10669 10668 10667 10667 10666 10664 10663 10662 10661 10659 10658 10656 10655 10653 10651 10649 10647 10646 10644 10643 10641 10639 10637 10635 10633 10631 10628 10625 10622 10619 10617 10615 10612 10609 10608 10608 10610 10612 10615 10618 10621 10624 10626 10628 10630 10631 10632 10634 10635 10636 10638 10640 10641 10643 10645
10672 10671 10671 10670 10669 10669 10668 10666 10665 10664 10663 10663 10662 10660 10659 10658 10656 10655 10653 10652 10650 10648 10646 10644 10643 10641 10640 10638 10636 10635 10633 10631 10630 10628 10626 10623 10620 10618 10616 10615 10613 10612 10611 10612 10612 10614 10615 10617 10619 10622 10624 10625 10627 10628 10629 10630 10632 10633 10635 10636 10638 10639 10641
10667 10667 10666 10666 10665 10664 10663 10662 10662 10661 10660 10659 10657 10656 10654 10653 10652 10651 10649 10647 10645 10643 10641 10639 10638 10636 10635 10633 10631 10631 10629 10628 10626 10625 10623 10621 10618 10616 10615 10614 10613 10613 10613 10613 10613 10614 10615 10616 10618 10619 10621 10622 10623 10624 10625 10627 10629 10630 10631 10632 10634 10635 10636
10663 10663 10662 10662 10661 10660 10659 10659 10658 10657 10656 10654 10653 10652 10650 10649 10648 10646 10644 10642 10640 10638 10636 10635 10633 10632 10630 10628 10627 10626 10625 10624 10623 10621 10620 10618 10616 10614 10613 10612 10612 10612 10612 10612 10612 10613 10613 10614 10615 10616 10617 10618 10619 10620 10622 10624 10626 10627 10628 10628 10629 10631 10632
10659 10659 10658 10658 10657 10656 10655 10655 10654 10653 10651 10650 10649 10647 10646 10645 10643 10641 10639 10637 10635 10634 10632 10630 10629 10627 10625 10624 10622 10621 10620 10620 10619 10618 10617 10615 10613 10612 10611 10610 10610 10610 10610 10610 10610 10610 10611 10611 10612 10613 10614 10615 10616 10617 10619 10621 10622 10623 10624 10624 10624 10626 10627
10655 10655 10654 10654 10653 10652 10651 10650 10649 10648 10647 10646 10644 10643 10641 10640 10638 10637 10635 10633 10631 10630 10628 10625 10624 10622 10621 10619 10618 10617 10616 10615 10615 10614 10613 10612 10610 10609 10608 10607 10607 10607 10607 10607 10607 10608 10608 10608 10608 10609 10610 10611 10613 10614 10615 10616 10617 10618 10619 10619 10620 10621 10622
10651 10650 10650 10649 10649 10648 10647 10646 10645 10644 10642 10641 10640 10638 10637 10635 10633 10632 10630 10628 10627 10625 10623 10621 10619 10617 10616 10614 10613 10612 10611 10610 10610 10609 10609 10608 10607 10606 10604 10603 10603 10603 10604 10604 10604 10604 10605 10605 10605 10605 10606 10607 10609 10610 10610 10611 10611 10613 10614 10614 10615 10616 10617
10647 10646 10646 10645 10644 10643 10642 10641 10640 10639 10638 10636 10634 10633 10631 10630 10628 10626 10625 10623 10621 10620 10618 10616 10614 10613 10611 10609 10608 10607 10606 10605 10605 10604 10604 10604 10603 10602 10601 10600 10599 10599 10599 10600 10600 10600 10600 10601 10601 10601 10602 10603 10604 10604 10605 10606 10606 10607 10608 10609 10610 10611 10612
10642 10641 10641 10640 10639 10638 10637 10636 10635 10634 10632 10631 10629 10628 10626 10624 10623 10621 10619 10617 10616 10615 10613 10611 10609 10607 10606 10604 10603 10602 10601 10600 10600 10599 10599 10599 10599 10598 10597 10596 10595 10594 10595 10595 10595 10595 10596 10596 10596 10597 10597 10598 10598 10599 10600 10601 10602 10602 10602 10604 10605 10606 10606
10637 10637 10636 10635 10634 10633 10633 10631 10630 10628 10627 10625 10624 10622 10621 10619 10617 10615 10613 10612 10610 10609 10607 10605 10604 10602 10600 10599 10597 10596 10595 10595 10594 10594 10593 10593 10593 10593 10592 10591 10590 10590 10589 10590 10590 10590 10590 10591 10591 10591 10592 10592 10593 10593 10594 10595 10596 10597 10598 10598 10599 10600 10601
10632 10632 10631 10630 10629 10628 10627 10626 10625 10623 10622 10620 10618 10616 10615 10613 10611 10609 10607 10605 10604 10603 10601 10599 10597 10596 10594 10592 10591 10590 10589 10589 10588 10588 10587 10587 10587 10587 10587 10586 10586 10585 10584 10584 10584 10584 10585 10585 10585 10585 10586 10586 10587 10587 10588 10588 10590 10591 10592 10593 10594 10594 10595
10627 10627 10626 10625 10624 10623 10622 10620 10619 10618 10616 10614 10612 10610 10608 10606 10604 10603 10601 10599 10598 10596 10594 10593 10591 10589 10588 10586 10585 10584 10583 10582 10582 10581 10581 10580 10580 10580 10580 10580 10580 10579 10579 10578 10578 10578 10578 10578 10579 10579 10579 10580 10580 10581 10581 10582 10582 10583 10585 10586 10587 10588 10588
10622 10621 10620 10619 10619 10618 10616 10615 10613 10612 10610 10608 10606 10604 10601 10599 10598 10596 10595 10593 10591 10589 10587 10586 10584 10582 10581 10580 10579 10578 10577 10576 10575 10574 10574 10573 10573 10573 10573 10573 10573 10573 10573 10572 10571 10571 10571 10571 10571 10572 10572 10573 10573 10573 10574 10575 10575 10576 10578 10578 10579 10580 10580
10616 10615 10615 10614 10613 10612 10610 10609 10607 10606 10604 10602 10599 10597 10595 10593 10591 10589 10588 10586 10584 10583 10581 10579 10578 10576 10574 10573 10572 10571 10570 10569 10568 10568 10567 10566 10566 10565 10565 10565 10566 10566 10566 10565 10565 10564 10564 10564 10564 10564 10564 10565 10566 10566 10567 10567 10567 10569 10570 10570 10571 10572 10573
10611 10610 10609 10608 10607 10606 10604 10603 10601 10599 10597 10595 10593 10591 10588 10587 10585 10583 10582 10580 10578 10576 10575 10573 10572 10570 10568 10567 10565 10564 10563 10562 10561 10560 10559 10559 10558 10558 10557 10557 10557 10558 10558 10558 10558 10557 10557 10556 10556 10556 10556 10556 10557 10558 10559 10559 10560 10560 10561 10562 10563 10563 10564
10605 10604 10604 10602 10601 10600 10598 10596 10595 10593 10591 10589 10587 10584 10582 10580 10579 10577 10575 10573 10572 10570 10568 10567 10566 10564 10562 10561 10559 10557 10556 10555 10554 10553 10552 10551 10550 10550 10549 10549 10549 10549 10549 10549 10549 10549 10549 10548 10548 10548 10548 10548 10548 10548 10549 10550 10551 10552 10552 10553 10554 10555 10556
10599 10598 10597 10596 10595 10594 10592 10590 10589 10587 10585 10582 10580 10578 10576 10574 10572 10571 10569 10567 10565 10564 10562 10561 10559 10557 10556 10554 10552 10550 10549 10547 10546 10545 10544 10543 10542 10541 10541 10540 10540 10540 10540 10540 10540 10540 10540 10540 10540 10540 10539 10539 10539 10539 10539 10540 10541 10542 10543 10544 10545 10545 10546
10593 10592 10591 10590 10588 10587 10586 10584 10582 10580 10578 10576 10574 10572 10570 10568 10566 10564 10562 10561 10559 10557 10556 10554 10552 10550 10548 10547 10545 10543 10541 10540 10538 10537 10536 10535 10534 10533 10532 10532 10531 10531 10531 10531 10531 10530 10530 10530 10530 10530 10530 10530 10530 10529 10530 10530 10530 10532 10533 10534 10535 10535 10536
10587 10586 10584 10583 10582 10581 10579 10577 10575 10573 10571 10569 10567 10565 10564 10562 10560 10558 10556 10554 10553 10551 10550 10548 10545 10543 10541 10539 10537 10536 10534 10532 10531 10529 10528 10526 10525 10524 10523 10523 10522 10521 10521 10520 10520 10520 10520 10519 10519 10520 10520 10520 10520 10520 10520 10520 10520 10521 10521 10522 10523 10525 10526
10580 10579 10577 10576 10575 10574 10572 10570 10568 10566 10564 10562 10561 10559 10557 10555 10554 10552 10550 10548 10547 10545 10543 10541 10538 10536 10534 10532 10530 10528 10526 10524 10523 10521 10519 10518 10517 10515 10514 10513 10512 10512 10511 10510 10510 10509 10509 10508 10508 10508 10509 10509 10510 10510 10510 10510 10510 10510 10510 10511 10512 10513 10514
10573 10571 10570 10570 10569 10567 10565 10563 10561 10559 10557 10556 10554 10553 10551 10549 10547 10545 10544 10542 10541 10539 10536 10534 10531 10528 10526 10524 10522 10520 10518 10516 10514 10512 10511 10509 10508 10506 10505 10504 10503 10502 10501 10500 10499 10498 10498 10497 10497 10496 10497 10497 10498 10498 10498 10498 10499 10499 10499 10499 10500 10501 10502
10565 10564 10564 10563 10562 10560 10558 10556 10554 10553 10551 10550 10548 10546 10544 10542 10541 10539 10538 10536 10534 10532 10529 10526 10524 10521 10519 10516 10514 10512 10510 10508 10506 10504 10502 10500 10499 10497 10495 10494 10493 10491 10490 10489 10488 10487 10486 10486 10485 10485 10484 10484 10485 10485 10486 10486 10486 10486 10487 10488 10488 10489 10489
10558 10558 10557 10556 10555 10553 10551 10550 10548 10547 10545 10543 10542 10540 10538 10536 10534 10533 10531 10529 10527 10525 10522 10519 10516 10513 10511 10508 10506 10503 10501 10499 10497 10495 10493 10491 10490 10488 10486 10484 10483 10481 10480 10478 10477 10476 10475 10474 10473 10472 10471 10471 10471 10471 10472 10472 10473 10473 10474 10474 10475 10476 10477
10552 10552 10551 10550 10548 10547 10545 10544 10542 10541 10539 10537 10535 10533 10532 10530 10528 10526 10524 10522 10520 10517 10514 10511 10508 10506 10503 10500 10498 10495 10493 10491 10488 10486 10484 10482 10480 10478 10476 10474 10473 10471 10469 10468 10466 10465 10463 10462 10460 10459 10458 10457 10457 10457 10457 10457 10458 10458 10459 10460 10461 10462 10463
10546 10545 10544 10543 10542 10541 10539 10538 10536 10535 10533 10531 10529 10527 10526 10524 10522 10519 10517 10515 10513 10510 10507 10504 10501 10498 10495 10492 10489 10487 10485 10482 10480 10477 10475 10472 10470 10468 10466 10464 10461 10460 10458 10456 10455 10453 10451 10450 10448 10446 10445 10444 10443 10442 10442 10442 10442 10443 10444 10444 10446 10447 10448
10540 10539 10538 10537 10536 10534 10533 10532 10530 10528 10527 10525 10523 10521 10520 10517 10515 10513 10511 10508 10506 10503 10499 10496 10493 10490 10487 10484 10481 10479 10476 10473 10471 10468 10465 10462 10460 10457 10454 10452 10449 10447 10445 10444 10442 10440 10439 10437 10435 10433 10431 10430 10429 10428 10428 10427 10427 10428 10428 10428 10430 10431 10432
10534 10533 10532 10531 10529 10528 10527 10525 10524 10522 10521 10519 10517 10515 10513 10510 10508 10506 10504 10501 10499 10495 10492 10488 10485 10481 10478 10475 10473 10470 10467 10465 10461 10458 10455 10452 10449 10446 10443 10440 10438 10435 10433 10431 10429 10427 10425 10424 10422 10420 10418 10417 10415 10414 10414 10413 10413 10413 10413 10413 10414 10415 10416